Weather History for Port Huron, MI

Change the Weather History Date:

Thursday, August 8, 2013

  Actual Average (KMTC) Record (KMTC)
Temperature  
Mean Temperature 65 °F -  
Max Temperature 71 °F 80 °F 96 °F (2001)
Min Temperature 57 °F 61 °F 47 °F (1989)
Growing Degree Days 15 (Base 50)    
Moisture  
Dew Point 63 °F    
Average Humidity 91    
Maximum Humidity 100    
Minimum Humidity 78    
Precipitation  
Precipitation 0.00 in - - ()
Sea Level Pressure  
Sea Level Pressure 29.98 in    
Wind  
Wind Speed 4 mph (NNE)    
Max Wind Speed 10 mph    
Max Gust Speed 16 mph    
Visibility 9 miles    
Events Fog    
Averages and records for this station are not official NWS values.
T = Trace of Precipitation, MM = Missing Value Source: NWS Daily Summary

Daily Weather History Graph

Daily Weather History Graph

Search for Another Location

Airport:

Trip Planner

Search our weather history database for the weather conditions in past years. The results will help you decide how hot, cold, wet, or windy it might be!

Date:

Astronomy

Aug. 08, 2013 Rise Set
Actual Time 6:28 AM EDT 8:41 PM EDT
Civil Twilight 5:57 AM EDT 9:13 PM EDT
Nautical Twilight 5:18 AM EDT 9:51 PM EDT
Astronomical Twilight 4:35 AM EDT 10:34 PM EDT
Moon 8:18 AM EDT (8/8) 9:14 PM EDT (8/8)
Length of Visible Light 15h 15m
Length of Day
14h 12m
Waxing Crescent, 3% of the Moon is Illuminated
Aug 8
Waxing Crescent
Aug 14
First Quarter
Aug 20
Full
Aug 28
Last Quarter
Sep 5
New

Hourly Weather History & Observations

Time (EDT) Temp. Dew Point Humidity Pressure Visibility Wind Dir Wind Speed Gust Speed Precip Events Conditions
12:16 AM 64.4 °F 64.4 °F 100% 29.91 in 7.0 mi Calm Calm - N/A   Clear
12:36 AM 64.4 °F 64.4 °F 100% 29.91 in 5.0 mi Calm Calm - N/A   Mostly Cloudy
12:56 AM 64.4 °F 64.4 °F 100% 29.91 in 1.8 mi Calm Calm - N/A   Mostly Cloudy
1:16 AM 64.4 °F 64.4 °F 100% 29.91 in 0.5 mi Calm Calm - N/A Fog Fog
1:36 AM 62.6 °F 62.6 °F 100% 29.91 in 0.8 mi Calm Calm - N/A   Overcast
1:56 AM 62.6 °F 62.6 °F 100% 29.91 in 1.2 mi Calm Calm - N/A   Overcast
2:16 AM 64.4 °F 64.4 °F 100% 29.91 in 4.0 mi NW 6.9 mph - N/A   Mostly Cloudy
2:36 AM 66.2 °F 66.2 °F 100% 29.92 in 10.0 mi North 6.9 mph - N/A   Mostly Cloudy
2:56 AM 66.2 °F 66.2 °F 100% 29.93 in 10.0 mi North 10.4 mph - N/A   Scattered Clouds
3:16 AM 64.4 °F 64.4 °F 100% 29.93 in 10.0 mi NNE 6.9 mph - N/A   Scattered Clouds
3:36 AM 64.4 °F 64.4 °F 100% 29.93 in 10.0 mi NNE 8.1 mph - N/A   Scattered Clouds
3:56 AM 64.4 °F 64.4 °F 100% 29.94 in 10.0 mi North 4.6 mph - N/A   Clear
4:16 AM 64.4 °F 64.4 °F 100% 29.94 in 10.0 mi NNE 4.6 mph - N/A   Clear
4:36 AM 64.4 °F 64.4 °F 100% 29.94 in 10.0 mi North 4.6 mph - N/A   Scattered Clouds
4:56 AM 64.4 °F 64.4 °F 100% 29.94 in 10.0 mi North 3.5 mph - N/A   Scattered Clouds
5:16 AM 64.4 °F 64.4 °F 100% 29.95 in 10.0 mi North 4.6 mph - N/A   Scattered Clouds
5:36 AM 64.4 °F 64.4 °F 100% 29.95 in 10.0 mi North 4.6 mph - N/A   Mostly Cloudy
5:56 AM 64.4 °F 64.4 °F 100% 29.97 in 10.0 mi Calm Calm - N/A   Mostly Cloudy
6:16 AM 64.4 °F 64.4 °F 100% 29.97 in 10.0 mi North 3.5 mph - N/A   Overcast
6:36 AM 64.4 °F 64.4 °F 100% 29.97 in 10.0 mi North 4.6 mph - N/A   Overcast
6:56 AM 64.4 °F 64.4 °F 100% 29.98 in 10.0 mi NNE 6.9 mph - N/A   Overcast
7:16 AM 64.4 °F 64.4 °F 100% 29.99 in 10.0 mi NNE 4.6 mph - N/A   Overcast
7:36 AM 64.4 °F 64.4 °F 100% 29.99 in 10.0 mi NNE 5.8 mph - N/A   Overcast
7:56 AM 64.4 °F 64.4 °F 100% 29.99 in 10.0 mi NNE 6.9 mph - N/A   Overcast
8:16 AM 64.4 °F 64.4 °F 100% 29.99 in 10.0 mi NNE 9.2 mph - N/A   Overcast
8:36 AM 64.4 °F 64.4 °F 100% 30.00 in 10.0 mi NNE 6.9 mph - N/A   Overcast
8:56 AM 66.2 °F 64.4 °F 94% 30.00 in 10.0 mi NNE 6.9 mph - N/A   Overcast
9:16 AM 66.2 °F 64.4 °F 94% 29.99 in 10.0 mi NNE 9.2 mph - N/A   Overcast
9:36 AM 66.2 °F 62.6 °F 88% 30.00 in 10.0 mi NNE 8.1 mph - N/A   Overcast
9:56 AM 66.2 °F 64.4 °F 94% 30.00 in 10.0 mi NNE 9.2 mph - N/A   Overcast
10:16 AM 66.2 °F 62.6 °F 88% 30.00 in 10.0 mi North 5.8 mph - N/A   Overcast
10:36 AM 66.2 °F 64.4 °F 94% 30.01 in 10.0 mi NNE 6.9 mph - N/A   Overcast
10:56 AM 66.2 °F 62.6 °F 88% 30.02 in 10.0 mi NNE 6.9 mph - N/A   Overcast
11:16 AM 68.0 °F 62.6 °F 83% 30.02 in 10.0 mi NNE 5.8 mph - N/A   Overcast
11:36 AM 68.0 °F 62.6 °F 83% 30.03 in 10.0 mi North 3.5 mph - N/A   Overcast
11:56 AM 68.0 °F 64.4 °F 88% 30.03 in 10.0 mi NNE 5.8 mph - N/A   Overcast
12:16 PM 69.8 °F 64.4 °F 83% 30.03 in 10.0 mi NE 8.1 mph - N/A   Overcast
12:36 PM 68.0 °F 62.6 °F 83% 30.02 in 10.0 mi NE 9.2 mph - N/A   Overcast
12:56 PM 69.8 °F 64.4 °F 83% 30.01 in 10.0 mi NE 9.2 mph - N/A   Overcast
1:16 PM 69.8 °F 64.4 °F 83% 30.02 in 10.0 mi ENE 4.6 mph - N/A   Mostly Cloudy
1:36 PM 71.6 °F 64.4 °F 78% 30.02 in 10.0 mi NNW 5.8 mph - N/A   Overcast
1:56 PM 69.8 °F 64.4 °F 83% 30.01 in 10.0 mi NE 10.4 mph 16.1 mph N/A   Overcast
2:16 PM 69.8 °F 64.4 °F 83% 30.01 in 10.0 mi NNE 8.1 mph - N/A   Mostly Cloudy
2:36 PM 69.8 °F 62.6 °F 78% 30.02 in 10.0 mi ENE 5.8 mph - N/A   Mostly Cloudy
2:56 PM 69.8 °F 62.6 °F 78% 30.01 in 10.0 mi NE 8.1 mph - N/A   Scattered Clouds
3:16 PM 69.8 °F 62.6 °F 78% 30.01 in 10.0 mi NE 9.2 mph - N/A   Clear
3:36 PM 69.8 °F 62.6 °F 78% 30.00 in 10.0 mi NNE 10.4 mph - N/A   Clear
3:56 PM 69.8 °F 62.6 °F 78% 30.00 in 10.0 mi NE 10.4 mph - N/A   Clear
4:16 PM 69.8 °F 64.4 °F 83% 30.00 in 10.0 mi ENE 10.4 mph - N/A   Scattered Clouds
4:36 PM 69.8 °F 62.6 °F 78% 30.00 in 10.0 mi NNE 9.2 mph - N/A   Scattered Clouds
4:56 PM 69.8 °F 62.6 °F 78% 30.00 in 10.0 mi NE 10.4 mph - N/A   Scattered Clouds
5:16 PM 68.0 °F 62.6 °F 83% 29.99 in 10.0 mi North 6.9 mph - N/A   Clear
5:36 PM 69.8 °F 62.6 °F 78% 29.99 in 10.0 mi NNE 9.2 mph - N/A   Clear
5:56 PM 68.0 °F 60.8 °F 78% 29.99 in 10.0 mi NNE 8.1 mph - N/A   Clear
6:16 PM 68.0 °F 60.8 °F 78% 29.99 in 10.0 mi North 10.4 mph - N/A   Clear
6:36 PM 68.0 °F 60.8 °F 78% 29.99 in 10.0 mi NNE 9.2 mph - N/A   Clear
6:56 PM 66.2 °F 60.8 °F 83% 29.99 in 10.0 mi North 8.1 mph - N/A   Clear
7:16 PM 66.2 °F 59.0 °F 78% 29.99 in 10.0 mi North 8.1 mph - N/A   Clear
7:36 PM 64.4 °F 60.8 °F 88% 29.99 in 10.0 mi NNE 9.2 mph - N/A   Clear
7:56 PM 64.4 °F 60.8 °F 88% 30.00 in 10.0 mi NNE 6.9 mph - N/A   Clear
8:16 PM 64.4 °F 60.8 °F 88% 30.01 in 10.0 mi Calm Calm - N/A   Clear
8:36 PM 64.4 °F 60.8 °F 88% 30.01 in 10.0 mi North 3.5 mph - N/A   Clear
8:56 PM 62.6 °F 59.0 °F 88% 30.00 in 10.0 mi North 3.5 mph - N/A   Clear
9:16 PM 62.6 °F 59.0 °F 88% 30.01 in 10.0 mi North 3.5 mph - N/A   Clear
9:36 PM 62.6 °F 59.0 °F 88% 30.00 in 10.0 mi Calm Calm - N/A   Clear
9:56 PM 62.6 °F 59.0 °F 88% 30.00 in 10.0 mi Calm Calm - N/A   Clear
10:16 PM 62.6 °F 59.0 °F 88% 30.00 in 10.0 mi Calm Calm - N/A   Clear
10:36 PM 60.8 °F 59.0 °F 94% 30.01 in 10.0 mi Calm Calm - N/A   Clear
10:56 PM 59.0 °F 59.0 °F 100% 30.01 in 10.0 mi NW 3.5 mph - N/A   Clear
11:16 PM 59.0 °F 59.0 °F 100% 30.00 in 10.0 mi NW 3.5 mph - N/A   Clear
11:36 PM 59.0 °F 59.0 °F 100% 30.00 in 10.0 mi Calm Calm - N/A   Clear
11:56 PM 57.2 °F 57.2 °F 100% 29.99 in 10.0 mi NW 3.5 mph - N/A   Clear